Find STARLINK-37528

NORAD ID: 68904 Constellation: starlink operational
LEOCIRCULARRETROGRADE

Live Position

Loading 3D Globe...

About STARLINK-37528

Description loading...

Upcoming Passes

Passes for default location (London). Set your location on the main map for personalized predictions.

Altitude History

Loading altitude history...

Two-Line Element Set

1 68904U 26097K 26125.50001156 -.02155742 13036-2 -55391-2 0 9993
2 68904 97.2874 320.4905 0001439 81.9032 141.5260 15.95399974 2067
Epoch: May 5, 2026 • Age: 6 hours